Weather History for Hatteras, NC

Change the Weather History Date:

Sunday, November 17, 2013

  Actual Average Record
Temperature  
Mean Temperature 68 °F 57 °F  
Max Temperature 73 °F 64 °F 79 °F (1988)
Min Temperature 62 °F 51 °F 22 °F (1967)
Degree Days  
Heating Degree Days 0 8  
Month to date heating degree days 107 110  
Since 1 July heating degree days 158 185  
Cooling Degree Days 3 1  
Month to date cooling degree days 22 17  
Year to date cooling degree days 1990 1707  
Growing Degree Days 17 (Base 50)    
Moisture  
Dew Point 65 °F    
Average Humidity 90    
Maximum Humidity 100    
Minimum Humidity 79    
Precipitation  
Precipitation 0.03 in 0.17 in 1.93 in (2011)
Month to date precipitation 1.59 3.00  
Year to date precipitation 47.07 51.82  
Snow  
Snow 0.00 in - - ()
Month to date snowfall 0.0  
Since 1 July snowfall 0.0  
Snow Depth 0.00 in    
Sea Level Pressure  
Sea Level Pressure 30.12 in    
Wind  
Wind Speed 5 mph (South)    
Max Wind Speed 16 mph    
Max Gust Speed 21 mph    
Visibility 7 miles    
Events Rain    
T = Trace of Precipitation, MM = Missing Value Source: NWS Daily Summary

Daily Weather History Graph

Daily Weather History Graph

Search for Another Location

Airport:

Trip Planner

Search our weather history database for the weather conditions in past years. The results will help you decide how hot, cold, wet, or windy it might be!

Date:

Astronomy

Nov. 17, 2013 Rise Set
Actual Time 6:39 AM EST 4:55 PM EST
Civil Twilight 6:12 AM EST 5:22 PM EST
Nautical Twilight 5:41 AM EST 5:52 PM EST
Astronomical Twilight 5:11 AM EST 6:23 PM EST
Moon 5:10 PM EST (11/17) 6:31 AM EST (11/17)
Length of Visible Light 11h 09m
Length of Day
10h 15m
Full, 100% of the Moon is Illuminated
Nov 17
Full
Nov 25
Last Quarter
Dec 2
New
Dec 9
First Quarter
Dec 17
Full

Hourly Weather History & Observations

Time (EST) Temp. Dew Point Humidity Pressure Visibility Wind Dir Wind Speed Gust Speed Precip Events Conditions
12:51 AM 63.0 °F 61.0 °F 93% 30.18 in 10.0 mi NE 4.6 mph - N/A   Overcast
1:51 AM 63.0 °F 62.1 °F 97% 30.17 in 10.0 mi NNE 4.6 mph - N/A   Overcast
2:38 AM 64.4 °F 62.6 °F 94% 30.17 in 10.0 mi Calm Calm - N/A   Mostly Cloudy
2:46 AM 62.6 °F 62.6 °F 100% 30.16 in 10.0 mi Calm Calm - N/A   Mostly Cloudy
2:51 AM 63.0 °F 62.1 °F 97% 30.16 in 10.0 mi Calm Calm - N/A   Overcast
3:51 AM 63.0 °F 62.1 °F 97% 30.14 in 2.5 mi ESE 4.6 mph - N/A   Mostly Cloudy
4:08 AM 64.4 °F 62.6 °F 94% 30.14 in 3.0 mi SE 5.8 mph - N/A   Scattered Clouds
4:18 AM 64.4 °F 62.6 °F 94% 30.14 in 6.0 mi SE 4.6 mph - N/A   Mostly Cloudy
4:29 AM 64.4 °F 62.6 °F 94% 30.14 in 8.0 mi SE 3.5 mph - N/A   Mostly Cloudy
4:51 AM 64.9 °F 64.0 °F 97% 30.14 in 6.0 mi Calm Calm - N/A   Overcast
5:32 AM 64.4 °F 64.4 °F 100% 30.14 in 4.0 mi SSE 3.5 mph - 0.00 in Rain Light Rain
5:51 AM 64.9 °F 64.0 °F 97% 30.14 in 6.0 mi SSE 4.6 mph - 0.00 in Rain Light Rain
6:33 AM 64.4 °F 64.4 °F 100% 30.15 in 6.0 mi Calm Calm - 0.00 in   Mostly Cloudy
6:51 AM 64.9 °F 64.0 °F 97% 30.15 in 3.0 mi SSE 3.5 mph - 0.00 in   Mostly Cloudy
7:51 AM 66.0 °F 64.9 °F 96% 30.15 in 4.0 mi South 4.6 mph - N/A   Mostly Cloudy
8:48 AM 66.2 °F 66.2 °F 100% 30.16 in 4.0 mi SSW 3.5 mph - 0.01 in   Overcast
8:51 AM 66.9 °F 66.0 °F 97% 30.17 in 4.0 mi SSW 3.5 mph - 0.01 in   Overcast
9:08 AM 66.2 °F 66.2 °F 100% 30.17 in 3.0 mi SSW 4.6 mph - 0.00 in Rain Light Rain
9:20 AM 69.8 °F 68.0 °F 94% 30.17 in 6.0 mi SSW 3.5 mph - 0.00 in Rain Light Rain
9:36 AM 68.0 °F 66.2 °F 94% 30.17 in 4.0 mi Calm Calm - 0.00 in   Overcast
9:43 AM 68.0 °F 66.2 °F 94% 30.17 in 5.0 mi Calm Calm - 0.00 in   Overcast
9:51 AM 69.1 °F 66.9 °F 93% 30.17 in 7.0 mi Calm Calm - 0.00 in   Overcast
10:10 AM 69.8 °F 68.0 °F 94% 30.17 in 8.0 mi Calm Calm - N/A   Scattered Clouds
10:18 AM 71.6 °F 68.0 °F 88% 30.17 in 10.0 mi SW 4.6 mph - N/A   Partly Cloudy
10:51 AM 72.0 °F 68.0 °F 87% 30.16 in 10.0 mi WNW 5.8 mph - N/A   Mostly Cloudy
11:39 AM 69.8 °F 64.4 °F 83% 30.14 in 10.0 mi NW 5.8 mph - N/A   Mostly Cloudy
11:51 AM 68.0 °F 64.0 °F 87% 30.13 in 10.0 mi NNW 4.6 mph - N/A   Mostly Cloudy
12:51 PM 68.0 °F 64.0 °F 87% 30.11 in 10.0 mi NNW 3.5 mph - N/A   Mostly Cloudy
1:00 PM 69.8 °F 64.4 °F 83% 30.10 in 10.0 mi Variable 3.5 mph - N/A   Mostly Cloudy
1:09 PM 69.8 °F 64.4 °F 83% 30.10 in 10.0 mi NNW 3.5 mph - N/A   Scattered Clouds
1:51 PM 71.1 °F 64.9 °F 81% 30.09 in 10.0 mi NW 3.5 mph - N/A   Clear
2:51 PM 72.0 °F 66.0 °F 81% 30.08 in 10.0 mi Variable 3.5 mph - N/A   Clear
3:51 PM 68.0 °F 64.0 °F 87% 30.06 in 8.0 mi South 4.6 mph - N/A   Clear
4:51 PM 66.0 °F 64.0 °F 93% 30.05 in 8.0 mi South 5.8 mph - N/A   Clear
5:51 PM 68.0 °F 64.9 °F 90% 30.06 in 10.0 mi SSW 9.2 mph - N/A   Mostly Cloudy
6:51 PM 68.0 °F 64.9 °F 90% 30.06 in 10.0 mi SSW 6.9 mph - N/A   Mostly Cloudy
7:51 PM 68.0 °F 66.0 °F 93% 30.06 in 7.0 mi SSW 11.5 mph 18.4 mph 0.00 in Rain Light Rain
8:51 PM 66.9 °F 64.9 °F 93% 30.05 in 8.0 mi South 11.5 mph - 0.00 in   Clear
9:51 PM 66.9 °F 64.9 °F 93% 30.02 in 9.0 mi SSE 13.8 mph - 0.00 in   Mostly Cloudy
10:13 PM 66.2 °F 64.4 °F 94% 30.02 in 8.0 mi South 10.4 mph - N/A   Overcast
10:51 PM 66.9 °F 64.9 °F 93% 30.01 in 7.0 mi South 9.2 mph - 0.01 in Rain Light Rain
11:28 PM 66.2 °F 66.2 °F 100% 30.00 in 6.0 mi SSW 5.8 mph - 0.01 in Rain Light Rain
11:41 PM 66.2 °F 64.4 °F 94% 30.00 in 6.0 mi SW 6.9 mph - 0.01 in   Mostly Cloudy
11:51 PM 66.9 °F 64.9 °F 93% 29.99 in 6.0 mi SW 6.9 mph - 0.01 in   Mostly Cloudy